Terminal Aerodrome Forecast
Issued by NWS Omaha/Valley, NE

Home | Current Version | Previous Version | Text Only | Print | Product List | Glossary On
Versions: 1 2 3 4 5 6 7 8 9 10 11 12 13 14 15 16 17 18 19 20 21 22 23 24 25 26 27 28 29 30 31 32 33 34 35 36 37 38 39 40
000
FTUS43 KOAX 251933 AAA
TAFOMA
TAF AMD
KOMA 251933Z 2520/2618 VRB03KT P6SM VCTS SCT060CB SCT150
      TEMPO 2520/2521 VRB15G25KT -TSRA BKN060CB
     FM252100 VRB05KT P6SM VCSH FEW060 SCT200
     FM260000 VRB05KT P6SM VCTS FEW060CB SCT250
     FM260300 11003KT P6SM SCT060 BKN200
     FM260600 16006KT P6SM BKN250=

USA.gov is the U.S. government's official web portal to all federal, state and local government web resources and services.